Content
SEND FEEDBACK

Daily
Averages
Monthly
Summary
United States of America

LYONS, NEBRASKA


Home > North America > United States > Nebraska
Elevation: 1280 feet     Latitude: 41 56N     Longitude: 096 28W

WEATHER
 
SELECT A DAY
Number of Records: 194,342;   Date Range: 11/7/95 - 8/12/14
 
SHARE

PRINT THIS DATA

[ ← Previous Day ]
WEATHER ALMANAC - FEBRUARY 13, 2013
[ Next Day → ]
[ °C ]   °F
Weather ElementAverageHighLow
Temperature38.3 °F55 °F (2:54 pm)23 °F (5:54 am)
Dewpoint26 °F30 °F (10:54 am)19 °F (5:54 am)
Humidity64.8 %85 % (3:54 am)33 % (3:54 pm)
Barometer29.80 in29.91 in (1:54 am)29.70 in (3:54 pm)
Wind Speed8.9 mph19.6 mph (2:54 pm)
Wind Gust26.5 mph (2:54 pm)
Weather ElementAverage
Visibility10 mi
Wind DirectionWSW (231.3 °)

Weather ElementTotal
Precipitation---
Heating Degree Days26 (Base 65)
Averaged from 23 records on February 13, 2013
WEATHER CONDITIONS BREAKOUT
WIND DIRECTION BREAKOUT
WEATHER BY HOUR - FEBRUARY 13, 2013
[ °C ]   °F
Local TimeTemperatureDewpointHumidityBarometerVisibilityWind DirectionWind SpeedGust SpeedPrecipitationEventsConditions
1:54 AM26.1 °F21.0 °F81 %29.91 in10.0 miWSW (240°)4.6 mphClear
2:54 AM24.1 °F19.9 °F84 %29.89 in10.0 miSW (220°)3.5 mphClear
3:54 AM25.0 °F21.0 °F85 %29.87 in10.0 miWSW (240°)5.8 mphClear
4:54 AM25.0 °F21.0 °F85 %29.87 in10.0 miWSW (250°)6.9 mphClear
5:54 AM23.0 °F19.0 °F85 %29.87 in10.0 miCalmClear
6:54 AM25.0 °F21.0 °F85 %29.87 in10.0 miWSW (240°)5.8 mphClear
7:54 AM25.0 °F21.0 °F85 %29.88 in10.0 miSSW (200°)3.5 mphClear
8:54 AM30.0 °F25.0 °F82 %29.87 in10.0 miSSW (200°)3.5 mphClear
9:54 AM35.1 °F28.0 °F76 %29.86 in10.0 miSW (220°)5.8 mphClear
10:54 AM41.0 °F30.0 °F65 %29.84 in10.0 miSSW (210°)8.1 mphClear
11:54 AM48.0 °F30.0 °F50 %29.81 in10.0 miSW (220°)13.8 mphClear
12:54 PM50.0 °F30.0 °F46 %29.78 in10.0 miSW (220°)11.5 mphClear
1:54 PM53.1 °F28.0 °F38 %29.75 in10.0 miWSW (250°)16.1 mphClear
2:54 PM55.0 °F27.0 °F34 %29.71 in10.0 miWSW (250°)19.6 mph26.5 mphClear
3:54 PM55.0 °F26.1 °F33 %29.70 in10.0 miWSW (250°)17.3 mphScattered Clouds
4:54 PM52.0 °F28.9 °F41 %29.70 in10.0 miWSW (240°)9.2 mphOvercast
5:54 PM46.0 °F30.0 °F54 %29.72 in10.0 miWest (260°)8.1 mphOvercast
6:54 PM46.9 °F28.9 °F50 %29.73 in10.0 miWest (280°)10.4 mphOvercast
7:54 PM39.0 °F28.0 °F65 %29.74 in10.0 miWSW (250°)5.8 mphMostly Cloudy
8:54 PM37.9 °F28.0 °F68 %29.74 in10.0 miWest (260°)10.4 mphPartly Cloudy
9:54 PM39.9 °F28.9 °F65 %29.74 in10.0 miWest (270°)12.7 mphClear
10:54 PM39.0 °F28.9 °F67 %29.75 in10.0 miWest (270°)11.5 mphClear
11:54 PM39.0 °F28.9 °F67 %29.77 in10.0 miWest (280°)10.4 mphClear
Hourly data recorded from KTQE, located miles away from Lyons, Nebraska







STORIES FROM OUR PARTNERS